This demonstration page uses our WeatherBlox Daily Observations layout. Learn more.

Left ArrowRight Arrow

40.92945, -100.16068

Hourly Observations for February 19, 2018

Temp ( °F °C ) Dew Point ( °F °C ) Humidity (%) Winds ( mph kmh ) Pressure ( in mb ) Visibility ( mi km ) Precip ( " mm )
12:15 am 00:15 Cloudy 24 -4.2 21 -6 87 87 N 26 43 29.83 1010 10 16 N/A
12:35 am 00:35 Cloudy with Mist and Fog 24 -4.2 21 -6 87 87 N 26 43 29.83 1010 5 8 N/A
12:55 am 00:55 Cloudy with Mist and Fog 24 -4.5 21 -6.2 88 88 N 25 41 29.83 1010 4 6 N/A
1:15 am 01:15 Cloudy with Mist and Fog 23 -4.8 20 -6.5 88 88 N 22 35 29.83 1010 3 5 N/A
1:35 am 01:35 Cloudy with Mist and Fog 23 -5.1 20 -6.9 87 87 N 23 37 29.85 1011 3 4 N/A
1:55 am 01:55 Cloudy with Mist and Fog 22 -5.3 19 -7 88 88 N 22 35 29.88 1012 3 5 N/A
2:15 am 02:15 Cloudy with Mist and Fog 22 -5.7 19 -7.5 87 87 N 24 39 29.88 1012 3 5 N/A
2:35 am 02:35 Cloudy with Mist and Fog 21 -5.9 18 -7.6 88 88 N 17 28 29.88 1012 3 5 N/A
2:55 am 02:55 Windy with Snow Likely 21 -6.2 17 -8.1 87 87 N 21 33 29.91 1013 3 5 N/A
3:15 am 03:15 Cloudy with Mist and Fog 20 -6.5 17 -8.5 86 86 N 20 31 29.91 1013 3 5 N/A
3:35 am 03:35 Windy with Snow Likely 20 -6.7 16 -8.8 85 85 N 21 33 29.91 1013 3 5 N/A
3:55 am 03:55 Windy with Snow Likely 19 -7 16 -9.1 85 85 N 21 33 29.94 1014 4 6 N/A
4:15 am 04:15 Cloudy with Light Snow 19 -7.5 14 -9.8 84 84 N 18 30 29.94 1014 5 8 N/A
4:35 am 04:35 Windy with Snow Likely 18 -7.7 14 -10 84 84 N 20 31 29.97 1015 3 5 N/A
4:55 am 04:55 Windy with Snow Likely 17 -8.1 13 -10.6 82 82 N 23 37 29.97 1015 10 16 N/A
5:15 am 05:15 Windy with Snow Likely 17 -8.2 12 -10.9 81 81 N 20 31 29.97 1015 5 8 N/A
5:35 am 05:35 Cloudy with Light Snow 17 -8.5 12 -11.1 82 82 N 17 28 29.97 1015 7 11 N/A
5:55 am 05:55 Cloudy with Light Snow 17 -8.5 12 -11.1 82 82 N 15 24 29.97 1015 7 11 N/A
6:15 am 06:15 Windy with Snow Likely 16 -8.7 12 -11.3 82 82 N 21 33 30.00 1016 5 8 N/A
6:35 am 06:35 Windy with Snow Likely 16 -8.8 11 -11.4 82 82 N 20 31 30.00 1016 5 8 N/A
6:55 am 06:55 Windy with Snow Likely 16 -9 11 -11.7 81 81 N 20 31 29.97 1015 7 11 N/A
7:15 am 07:15 Cloudy 15 -9.2 11 -11.8 82 82 N 22 35 29.97 1015 10 16 N/A
7:35 am 07:35 Cloudy with Light Snow 16 -9 11 -11.6 82 82 N 15 24 30.00 1016 7 11 N/A
7:55 am 07:55 Cloudy with Light Snow 16 -9 11 -11.7 81 81 N 16 26 30.03 1017 7 11 N/A
8:15 am 08:15 Cloudy with Light Snow 16 -9 11 -11.7 81 81 N 17 28 30.03 1017 7 11 N/A
8:35 am 08:35 Cloudy with Light Snow 16 -8.9 11 -11.6 81 81 N 16 26 30.03 1017 3 5 N/A
8:55 am 08:55 Cloudy with Light Snow 16 -9 11 -11.8 80 80 N 15 24 30.06 1018 7 11 N/A
9:15 am 09:15 Cloudy with Light Snow 16 -9 11 -11.6 82 82 N 18 30 30.03 1017 5 8 N/A
9:35 am 09:35 Windy with Snow Likely 16 -9.1 10 -12 80 80 N 20 31 30.03 1017 5 8 N/A
9:55 am 09:55 Cloudy with Light Snow 16 -9.1 10 -12 80 80 N 17 28 30.03 1017 5 8 N/A
10:15 am 10:15 Cloudy with Light Snow 16 -9.1 10 -12 80 80 N 16 26 30.03 1017 7 11 N/A
10:35 am 10:35 Cloudy with Light Snow 16 -9 11 -11.8 80 80 N 17 28 30.03 1017 7 11 N/A
10:55 am 10:55 Cloudy with Light Snow 16 -9 11 -11.8 80 80 N 14 22 30.03 1017 5 8 N/A
11:15 am 11:15 Cloudy with Light Snow 16 -9 11 -11.7 81 81 N 16 26 30.06 1018 5 8 N/A
11:35 am 11:35 Cloudy with Light Snow 16 -9 11 -11.7 81 81 N 15 24 30.03 1017 7 11 N/A
11:55 am 11:55 Cloudy with Light Snow 16 -8.9 11 -11.7 80 80 N 18 30 30.03 1017 7 11 N/A
12:15 pm 12:15 Cloudy with Light Snow 16 -8.8 11 -11.7 80 80 N 14 22 30.03 1017 4 6 N/A
12:35 pm 12:35 Cloudy with Light Snow 17 -8.6 12 -11.2 82 82 N 15 24 30.00 1016 3 5 N/A
12:55 pm 12:55 Cloudy with Light Snow 16 -8.7 11 -11.5 80 80 N 13 20 30.00 1016 4 6 N/A
1:15 pm 13:15 Cloudy with Light Snow 16 -8.8 11 -11.7 80 80 N 17 28 30.00 1016 5 8 N/A
1:35 pm 13:35 Cloudy with Light Snow 16 -8.7 11 -11.5 80 80 N 15 24 30.00 1016 4 6 N/A
1:55 pm 13:55 Cloudy with Light Snow 16 -8.7 11 -11.5 80 80 N 14 22 30.00 1016 10 16 N/A
2:15 pm 14:15 Cloudy with Light Snow 17 -8.6 11 -11.4 80 80 N 13 20 30.00 1016 4 6 N/A
2:35 pm 14:35 Cloudy with Light Snow 16 -8.7 11 -11.5 80 80 N 12 19 30.00 1016 7 11 N/A
2:55 pm 14:55 Cloudy with Light Snow 16 -8.8 11 -11.6 80 80 N 10 17 30.00 1016 4 6 N/A
3:15 pm 15:15 Cloudy with Light Snow 16 -8.8 11 -11.7 80 80 N 13 20 30.00 1016 4 6 N/A
3:35 pm 15:35 Cloudy with Light Snow 16 -8.9 11 -11.9 79 79 N 14 22 29.97 1015 7 11 N/A
3:55 pm 15:55 Cloudy with Light Snow 16 -9.1 11 -11.9 80 80 N 16 26 29.97 1015 5 8 N/A
4:15 pm 16:15 Cloudy with Light Snow 16 -9 10 -12 79 79 NNE 14 22 29.97 1015 4 6 N/A
4:35 pm 16:35 Cloudy 15 -9.2 10 -12.1 80 80 NNE 13 20 29.97 1015 7 11 N/A
4:55 pm 16:55 Cloudy 15 -9.2 10 -12.1 80 80 NNE 14 22 30.00 1016 10 16 N/A
5:15 pm 17:15 Cloudy with Light Snow 15 -9.2 10 -12.3 78 78 NNE 15 24 30.00 1016 10 16 N/A
5:35 pm 17:35 Cloudy with Light Snow 15 -9.5 10 -12.5 79 79 N 15 24 30.00 1016 10 16 N/A
5:55 pm 17:55 Cloudy with Light Snow 15 -9.7 10 -12.5 80 80 NNE 17 28 30.03 1017 7 11 N/A
6:15 pm 18:15 Cloudy 15 -9.7 9 -12.6 80 80 NNE 14 22 30.03 1017 10 16 N/A
6:35 pm 18:35 Cloudy 14 -10 9 -12.9 80 80 NE 9 15 30.06 1018 10 16 N/A
6:55 pm 18:55 Cloudy with Light Snow 14 -10 9 -12.7 81 81 NNE 10 17 30.06 1018 7 11 N/A
7:15 pm 19:15 Cloudy with Light Snow 14 -10 10 -12.5 82 82 NNE 12 19 30.06 1018 3 5 N/A
7:35 pm 19:35 Cloudy with Light Snow 13 -10.3 9 -12.6 83 83 NNE 12 19 30.06 1018 5 8 N/A
7:55 pm 19:55 Cloudy with Light Snow 13 -10.3 10 -12.5 84 84 NNE 13 20 30.06 1018 5 8 N/A
8:15 pm 20:15 Cloudy with Light Snow 13 -10.5 10 -12.5 85 85 N 13 20 30.06 1018 4 6 N/A
8:35 pm 20:35 Cloudy with Light Snow 13 -10.5 10 -12.5 85 85 NNE 12 19 30.06 1018 7 11 N/A
8:55 pm 20:55 Cloudy with Light Snow 13 -10.7 9 -12.7 85 85 N 14 22 30.06 1018 4 6 N/A
9:15 pm 21:15 Cloudy with Light Snow 13 -10.6 9 -12.7 85 85 N 14 22 30.06 1018 5 8 N/A
9:35 pm 21:35 Cloudy with Light Snow 13 -10.7 9 -13 83 83 N 14 22 30.06 1018 4 6 N/A
9:55 pm 21:55 Cloudy 13 -10.7 9 -13 83 83 NNE 14 22 30.03 1017 10 16 N/A
10:15 pm 22:15 Cloudy with Light Snow 13 -10.8 9 -13 84 84 N 14 22 30.06 1018 5 8 N/A
10:35 pm 22:35 Cloudy with Light Snow 12 -11 8 -13.4 83 83 N 16 26 30.06 1018 7 11 N/A
10:55 pm 22:55 Cloudy with Light Snow 12 -11 8 -13.5 82 82 N 12 19 30.09 1019 5 8 N/A
11:15 pm 23:15 Cloudy with Light Snow 12 -11.1 8 -13.6 82 82 N 16 26 30.09 1019 3 4 N/A
11:35 pm 23:35 Cloudy with Light Snow 12 -11.1 7 -13.7 81 81 N 14 22 30.09 1019 10 16 N/A
11:55 pm 23:55 Cloudy with Light Snow 12 -11.2 7 -14 80 80 NNW 15 24 30.09 1019 7 11 N/A

Powered by AerisWeather